WY1U-1 Weather Reports


Display with metric or nautical units.
time (UTC)temp
F
wind
direction
speed
MPH
gust
MPH
rain 1hr
in
rain 24hr
in
rain mn
in
humidity
%
barometer
mb
20260504100149 49 264 0.0 1.0 0.00 0.00 0.00 59 1013.1
20260504080150 41 218 0.0 1.0 0.00 0.00 0.00 78 1012.7
20260504070151 43 0 0.0 0.0 0.00 0.00 0.00 74 1012.5
20260504060150 42 0 0.0 0.0 0.00 0.00 0.00 71 1012.5
20260504050150 43 0 0.0 0.0 0.00 0.00 0.00 67 1012.4
20260504043149 44 0 0.0 0.0 0.00 0.00 0.00 63 1012.4
20260504040150 45 0 0.0 0.0 0.00 0.00 0.00 60 1012.2
20260504033149 46 0 0.0 0.0 0.00 0.00 0.00 58 1012.1
20260504030149 47 0 0.0 0.0 0.00 0.00 0.00 55 1012.1
20260504023149 47 0 0.0 0.0 0.00 0.00 0.00 54 1012.0
20260504020149 48 0 0.0 0.0 0.00 0.00 0.00 53 1011.9
20260504013149 49 0 0.0 0.0 0.00 0.00 0.00 53 1011.6
20260504010150 50 0 0.0 0.0 0.00 0.00 0.00 52 1011.2
20260504000150 54 0 0.0 0.0 0.00 0.00 0.00 43 1010.4
20260503230150 58 273 0.0 2.0 0.00 0.00 0.00 36 1009.9
20260503220150 57 283 2.0 8.0 0.00 0.00 0.00 36 1009.7
20260503210150 55 305 4.0 13.0 0.00 0.00 0.00 38 1009.7
20260503190150 56 339 5.0 10.0 0.00 0.00 0.00 38 1009.4
20260503180150 53 342 3.0 9.0 0.00 0.00 0.00 45 1009.7
20260503170151 53 322 4.0 13.0 0.00 0.00 0.00 43 1009.9
20260503140151 51 3 4.0 10.0 0.00 0.00 0.00 59 1009.7
20260503130150 49 347 2.0 7.0 0.00 0.00 0.00 61 1010.1
20260503120150 46 358 3.0 12.0 0.00 0.00 0.00 66 1010.0